Home > Weather > Saguenay > Past weeks

Flag for Canada Past Weather in Saguenay, Quebec, Canada — Yesterday and Last 2 Weeks

Now
62 °F

Cool.


Feels Like: 62 °F
Forecast: 59 / 71 °F
Wind: 9 mph from Northwest

Location: Jonquiere Airport

Current Time: Jun 28, 2016 at 11:07:53 AM

Latest Report: Jun 28, 2016 at 10:00 AM


Visibility: N/A

Pressure: 29.91 "Hg

Humidity: 85%

Dew Point: 57 °F

Location of SaguenayLocation

Past Weather in Saguenay — Graph

°F

Saguenay Temperature Yesterday

Maximum temperature yesterday: 80 °F (at 5:00 PM)
Minimum temperature yesterday: 65 °F (at 9:00 PM)
Average temperature yesterday: 74 °F

High & Low Weather Summary for the Past Weeks

 TemperatureHumidityPressure
High90 °F (Jun 20, 1:00 PM)100% (Jun 14, 7:00 AM)30.21 "Hg (Jun 14, 7:00 AM)
Low45 °F (Jun 17, 5:00 AM)20% (Jun 18, 2:00 PM)29.46 "Hg (Jun 21, 12:00 AM)
Average65 °F67%29.90 "Hg
* Reported Jun 13 9:00 AM — Jun 28 9:00 AM, Saguenay, Weather by CustomWeather, © 2016

Note: Actual official high and low records may vary slightly from our data, if they occured in-between our weather recording intervals... More about our weather records

Advertising

Saguenay Weather History for the Previous 24 Hours

Scroll right to see more
 ConditionsComfort  
Time TempWeatherWind HumidityBarometerVisibility
9:00 AM
Tue, Jun 28
62 °FCool.7 mph83%29.89 "HgN/A
8:00 AM62 °FCool.10 mph85%29.88 "HgN/A
7:00 AM62 °FMild.10 mph89%29.85 "HgN/A
6:00 AM63 °FMild.7 mph89%29.83 "HgN/A
5:00 AM64 °FMild.8 mph90%29.80 "HgN/A
4:00 AM64 °FMild.5 mph98%29.79 "HgN/A
3:00 AM63 °FMild.1 mph98%29.78 "HgN/A
2:00 AM63 °FMild.5 mph98%29.78 "HgN/A
1:00 AM63 °FMild.2 mph98%29.77 "HgN/A
12:00 AM64 °FMild.3 mph96%29.78 "HgN/A
11:00 PM
Mon, Jun 27
65 °FMild.6 mph96%29.77 "HgN/A
10:00 PM65 °FMild.3 mph96%29.78 "HgN/A
9:00 PM65 °FMild.8 mph93%29.78 "HgN/A
8:00 PM75 °FMild.15 mph65%29.73 "HgN/A
7:00 PM77 °FWarm.15 mph62%29.69 "HgN/A
6:00 PM80 °FWarm.15 mph60%29.68 "HgN/A
5:00 PM80 °FWarm.17 mph58%29.70 "HgN/A
4:00 PM78 °FWarm.16 mph66%29.72 "HgN/A
3:00 PM78 °FWarm.17 mph69%29.74 "HgN/A
2:00 PM77 °FWarm.9 mph72%29.75 "HgN/A
1:00 PM75 °FMild.7 mph74%29.75 "HgN/A
12:00 PM74 °FMild.13 mph75%29.77 "HgN/A
11:00 AM70 °FMild.3 mph88%29.79 "HgN/A
Weather by CustomWeather, © 2016

See weather overviewHow to use our weather pages